DW7210 Weather Reports


Display with metric or nautical units.
time (UTC)temp
F
wind
direction
speed
MPH
gust
MPH
rain 1hr
in
rain 24hr
in
rain mn
in
humidity
%
barometer
mb
20260507180417 75 90 2.0 5.0 0.00 0.00 0.00 20 1018.3
20260507175417 73 90 3.0 6.0 0.00 0.00 0.00 23 1018.2
20260507174437 74 0.0 4.0 0.00 0.00 0.00 23 1018.7
20260507173417 73 158 3.0 4.0 0.00 0.00 0.00 24 1018.8
20260507172417 71 135 6.0 12.0 0.00 0.00 0.00 23 1018.6
20260507171437 71 113 6.0 10.0 0.00 0.00 0.00 23 1018.6
20260507170437 72 113 3.0 5.0 0.00 0.00 0.00 23 1018.8
20260507165417 71 90 3.0 6.0 0.00 0.00 0.00 23 1018.9
20260507164417 71 113 1.0 2.0 0.00 0.00 0.00 23 1019.0
20260507163417 70 90 5.0 8.0 0.00 0.00 0.00 25 1018.8
20260507162417 69 90 4.0 6.0 0.00 0.00 0.00 26 1019.0
20260507161417 68 158 4.0 7.0 0.00 0.00 0.00 26 1019.1
20260507160517 68 135 3.0 6.0 0.00 0.00 0.00 26 1019.1
20260507155417 68 113 4.0 7.0 0.00 0.00 0.00 26 1019.2
20260507154417 68 135 4.0 6.0 0.00 0.00 0.00 26 1019.2
20260507153437 67 0.0 0.0 0.00 0.00 0.00 25 1019.2
20260507152417 67 0.0 1.0 0.00 0.00 0.00 25 1019.3
20260507151417 66 0.0 0.0 0.00 0.00 0.00 26 1019.3
20260507150417 64 0.0 0.0 0.00 0.00 0.00 28 1018.7
20260507145417 63 315 2.0 4.0 0.00 0.00 0.00 27 1018.8
20260507144417 63 0.0 0.0 0.00 0.00 0.00 26 1019.1
20260507143417 62 0.0 0.0 0.00 0.00 0.00 25 1019.0
20260507142417 63 0.0 2.0 0.00 0.00 0.00 25 1019.1
20260507141417 62 0.0 0.0 0.00 0.00 0.00 26 1019.4
20260507140417 61 0.0 1.0 0.00 0.00 0.00 27 1019.0
20260507135437 59 0.0 0.0 0.00 0.00 0.00 27 1018.8
20260507134437 60 0.0 0.0 0.00 0.00 0.00 27 1019.2
20260507133417 57 0.0 0.0 0.00 0.00 0.00 28 1018.8
20260507132417 56 0.0 0.0 0.00 0.00 0.00 28 1018.4
20260507131417 54 0.0 0.0 0.00 0.00 0.00 30 1018.3
20260507130457 55 0.0 0.0 0.00 0.00 0.00 28 1018.3
20260507125417 55 0.0 0.0 0.00 0.00 0.00 27 1018.1
20260507124417 56 0.0 0.0 0.00 0.00 0.00 27 1018.2
20260507123418 56 0.0 0.0 0.00 0.00 0.00 25 1018.0
20260507122417 56 0.0 0.0 0.00 0.00 0.00 25 1018.1
20260507121417 57 113 1.0 2.0 0.00 0.00 0.00 24 1018.2
20260507120417 57 135 3.0 4.0 0.00 0.00 0.00 25 1018.1
20260507115417 57 135 1.0 3.0 0.00 0.00 0.00 25 1018.0
20260507114417 57 158 1.0 2.0 0.00 0.00 0.00 24 1017.9
20260507113417 57 0.0 0.0 0.00 0.00 0.00 25 1017.5
20260507112457 57 90 2.0 3.0 0.00 0.00 0.00 25 1017.9
20260507111417 56 0.0 0.0 0.00 0.00 0.00 25 1017.7
20260507110417 57 0.0 0.0 0.00 0.00 0.00 24 1017.7
20260507105417 58 0.0 0.0 0.00 0.00 0.00 23 1018.0
20260507104417 58 338 1.0 2.0 0.00 0.00 0.00 23 1017.7
20260507103437 59 68 1.0 2.0 0.00 0.00 0.00 22 1018.0
20260507102417 59 0.0 0.0 0.00 0.00 0.00 22 1018.0
20260507101417 58 0.0 0.0 0.00 0.00 0.00 22 1017.7
20260507100437 57 203 1.0 2.0 0.00 0.00 0.00 26 1017.4
20260507095457 58 0.0 0.0 0.00 0.00 0.00 24 1017.4
20260507094417 59 0.0 0.0 0.00 0.00 0.00 24 1017.8
20260507093417 59 68 2.0 3.0 0.00 0.00 0.00 23 1017.6
20260507092417 60 0.0 0.0 0.00 0.00 0.00 22 1017.7
20260507091416 58 0.0 0.0 0.00 0.00 0.00 24 1017.5
20260507090417 57 0.0 0.0 0.00 0.00 0.00 24 1017.4
20260507085417 58 0.0 0.0 0.00 0.00 0.00 23 1017.5
20260507084417 59 0.0 0.0 0.00 0.00 0.00 22 1017.5
20260507083436 59 0.0 0.0 0.00 0.00 0.00 22 1017.5
20260507082416 59 0.0 0.0 0.00 0.00 0.00 22 1017.6
20260507081417 60 0.0 0.0 0.00 0.00 0.00 21 1017.6
20260507080416 62 0.0 0.0 0.00 0.00 0.00 20 1018.0
20260507075417 62 0.0 0.0 0.00 0.00 0.00 19 1017.9
20260507074437 62 0.0 0.0 0.00 0.00 0.00 19 1018.0
20260507073417 63 45 2.0 3.0 0.00 0.00 0.00 18 1018.3
20260507072416 63 23 1.0 3.0 0.00 0.00 0.00 18 1018.4
20260507071417 63 23 1.0 3.0 0.00 0.00 0.00 18 1018.1
20260507070437 63 45 3.0 3.0 0.00 0.00 0.00 17 1018.1
20260507065416 62 23 2.0 4.0 0.00 0.00 0.00 17 1018.0
20260507064416 62 0.0 0.0 0.00 0.00 0.00 16 1017.9
20260507063436 63 0.0 0.0 0.00 0.00 0.00 16 1017.9
20260507062416 63 0.0 0.0 0.00 0.00 0.00 16 1017.9
20260507061417 64 0.0 0.0 0.00 0.00 0.00 15 1018.0
20260507060417 64 23 1.0 4.0 0.00 0.00 0.00 15 1017.7
20260507055417 64 45 2.0 3.0 0.00 0.00 0.00 16 1017.6
20260507054417 64 0.0 0.0 0.00 0.00 0.00 16 1017.2
20260507053417 65 0 2.0 3.0 0.00 0.00 0.00 15 1017.6
20260507052417 65 0.0 0.0 0.00 0.00 0.00 15 1017.5
20260507051417 65 0.0 0.0 0.00 0.00 0.00 15 1016.8
20260507050417 65 0.0 0.0 0.00 0.00 0.00 15 1017.0
20260507045417 65 0.0 0.0 0.00 0.00 0.00 15 1016.9
20260507044417 65 0.0 0.0 0.00 0.00 0.00 16 1016.8
20260507043417 65 0.0 0.0 0.00 0.00 0.00 16 1016.8
20260507042437 66 0.0 0.0 0.00 0.00 0.00 16 1016.7
20260507041417 66 0.0 1.0 0.00 0.00 0.00 16 1016.6
20260507040457 66 0.0 0.0 0.00 0.00 0.00 17 1016.5
20260507035417 66 23 3.0 5.0 0.00 0.00 0.00 17 1016.4
20260507034417 67 0.0 0.0 0.00 0.00 0.00 17 1016.4
20260507033417 67 0.0 0.0 0.00 0.00 0.00 18 1016.2
20260507032417 67 0.0 0.0 0.00 0.00 0.00 18 1016.1
20260507031417 68 0.0 0.0 0.00 0.00 0.00 18 1015.7
20260507030417 68 45 1.0 4.0 0.00 0.00 0.00 18 1015.9
20260507025417 68 0.0 0.0 0.00 0.00 0.00 18 1015.7
20260507024417 69 0.0 0.0 0.00 0.00 0.00 18 1015.4
20260507023437 69 0.0 0.0 0.00 0.00 0.00 17 1015.3
20260507022437 70 0.0 3.0 0.00 0.00 0.00 17 1015.2
20260507021417 71 315 1.0 3.0 0.00 0.00 0.00 17 1015.0
20260507020416 71 315 3.0 4.0 0.00 0.00 0.00 17 1014.9
20260507015417 72 0.0 0.0 0.00 0.00 0.00 17 1014.8
20260507014417 72 315 4.0 6.0 0.00 0.00 0.00 17 1014.3
20260507013417 73 315 3.0 6.0 0.00 0.00 0.00 16 1014.6
20260507012417 73 293 5.0 8.0 0.00 0.00 0.00 16 1014.6
20260507011437 74 315 9.0 11.0 0.00 0.00 0.00 16 1014.1
20260507010417 75 315 2.0 3.0 0.00 0.00 0.00 16 1014.4
20260507005417 74 293 4.0 7.0 0.00 0.00 0.00 16 1014.0
20260507004416 75 293 10.0 12.0 0.00 0.00 0.00 15 1013.9
20260507003417 75 315 5.0 8.0 0.00 0.00 0.00 15 1014.0
20260507002417 75 293 6.0 10.0 0.00 0.00 0.00 16 1014.1
20260507001417 75 293 7.0 12.0 0.00 0.00 0.00 16 1014.0
20260507000417 75 270 2.0 5.0 0.00 0.00 0.00 16 1014.0
20260506235436 76 293 5.0 9.0 0.00 0.00 0.00 16 1014.3
20260506234416 76 293 10.0 15.0 0.00 0.00 0.00 16 1014.1
20260506233417 76 293 6.0 10.0 0.00 0.00 0.00 16 1014.2
20260506232417 76 315 5.0 11.0 0.00 0.00 0.00 16 1014.2
20260506231417 75 315 6.0 11.0 0.00 0.00 0.00 16 1014.0
20260506230416 76 293 4.0 18.0 0.00 0.00 0.00 16 1013.9
20260506225416 77 293 5.0 7.0 0.00 0.00 0.00 15 1014.2
20260506224417 76 248 6.0 10.0 0.00 0.00 0.00 16 1014.3
20260506223416 75 315 5.0 9.0 0.00 0.00 0.00 16 1014.4
20260506222417 76 270 1.0 5.0 0.00 0.00 0.00 16 1014.4
20260506221416 75 293 5.0 8.0 0.00 0.00 0.00 16 1014.6
20260506220437 77 225 5.0 9.0 0.00 0.00 0.00 16 1014.8
20260506215416 76 248 5.0 10.0 0.00 0.00 0.00 16 1014.9
20260506214416 74 315 9.0 15.0 0.00 0.00 0.00 16 1014.9
20260506213416 75 293 6.0 11.0 0.00 0.00 0.00 16 1015.1
20260506212416 75 248 5.0 10.0 0.00 0.00 0.00 16 1015.3
20260506211416 75 270 5.0 9.0 0.00 0.00 0.00 17 1015.4
20260506210416 75 315 8.0 15.0 0.00 0.00 0.00 16 1015.6
20260506205416 75 315 7.0 13.0 0.00 0.00 0.00 17 1015.7
20260506204417 75 225 4.0 7.0 0.00 0.00 0.00 18 1015.8
20260506203416 74 293 4.0 7.0 0.00 0.00 0.00 19 1015.8
20260506202416 74 293 8.0 11.0 0.00 0.00 0.00 18 1016.0
20260506201417 74 270 7.0 16.0 0.00 0.00 0.00 18 1016.0
20260506200416 74 270 4.0 7.0 0.00 0.00 0.00 19 1016.2
20260506195416 73 293 7.0 12.0 0.00 0.00 0.00 19 1016.3
20260506194416 73 270 5.0 9.0 0.00 0.00 0.00 19 1016.1
20260506193417 72 293 4.0 7.0 0.00 0.00 0.00 20 1015.8
20260506192417 73 225 3.0 4.0 0.00 0.00 0.00 21 1016.2
20260506191417 73 293 6.0 13.0 0.00 0.00 0.00 19 1016.7
20260506190437 71 248 4.0 14.0 0.00 0.00 0.00 20 1016.4
20260506185416 72 293 7.0 13.0 0.00 0.00 0.00 20 1016.5
20260506184416 72 225 5.0 13.0 0.00 0.00 0.00 22 1016.9
20260506183437 71 270 3.0 6.0 0.00 0.00 0.00 22 1017.1
20260506182416 72 225 5.0 11.0 0.00 0.00 0.00 21 1017.1
20260506181417 71 225 7.0 11.0 0.00 0.00 0.00 23 1017.2